Zurück zum Katalog

CZ-4C DEB

AktivSSO
NORAD 38663·DEBRIS·🇨🇳 China

Gestartet May 29, 2012 von Taiyuan Satellite Launch Center

Loading…

Nächste Überflüge (nächste 24 Stunden)

TLE

AktuellSource: Space-Track

Epoche: Sep 14, 2026, 12:39 UTC

1 38663U 12029E   26257.52734036 -.00000117  00000-0 -20677-3 0  9998
2 38663 100.2201 190.2599 0137235 282.6793  75.9005 13.08869035621612

Verfolge CZ-4C DEB in Echtzeit mit AllMySat

Download on the App Store